Tracking 19192 objects as of 20-Jun-2018
HD Live streaming from Space Station
objects crossing your sky now

TITAN 4B R/B

Track TITAN 4B R/B now!
10-day predictions
TITAN 4B R/B is classified as:


NORAD ID: 28647
Int'l Code: 2005-016B
Perigee: 470.0 km
Apogee: 644.8 km
Inclination: 57.0 °
Period: 95.7 minutes
Semi major axis: 6928 km
RCS: Unknown
Launch date: April 30, 2005
Source: United States (US)
Launch site: AIR FORCE EASTERN TEST RANGE (AFETR)

Note: This is a ROCKET BODY
aabbcc
Your satellite tracking list
Your tracking list is empty




NASA's NSSDC Master Catalog

Two Line Element Set (TLE):
1 28647U 05016B   18147.85695090 0.00000150  00000-0  86393-5 0    05
2 28647  56.9971  55.5801 0126144 226.3234 133.6766 15.05399413    02
Source of the keplerian elements: McCants